Wind_Speed
10 11 11 10 10 10 10 9 9 9 10 11 13 14 15 15 15 15 15 15 16 17 18 18 18 18 17 16 16 16 17 16 16 15 14 13 13 13 12 12 12 11 11 11
11 12 12 11 11 10 10 9 9 9 9 11 12 13 14 15 15 16 16 16 16 16 17 18 19 19 18 18 17 16 16 17 17 16 15 15 15 14 14 14 14 13 12 12
12 13 12 11 11 12 11 10 10 10 10 11 12 13 14 14 15 16 16 16 16 16 16 17 17 18 19 19 18 17 17 17 17 17 17 16 16 16 16 16 15 15 14 13
13 13 13 11 12 12 13 12 12 11 11 12 12 14 15 15 15 16 16 16 16 16 16 16 17 17 18 19 19 18 18 18 18 18 17 17 17 17 17 17 17 16 15 15
15 14 13 12 12 13 13 12 12 12 12 12 13 13 14 15 14 15 16 16 16 16 16 16 17 18 18 19 18 18 17 17 18 18 17 17 18 18 18 18 17 17 17 17
15 15 13 12 13 13 13 13 13 12 12 13 13 13 13 15 15 15 16 15 16 17 16 16 17 18 18 18 18 18 18 18 18 18 19 19 19 19 19 18 18 19 19 19
16 15 13 13 13 13 14 13 13 13 13 13 12 12 13 14 15 15 15 16 16 16 16 16 17 18 18 18 19 19 19 19 19 19 20 20 20 21 21 20 21 21 21 21
17 15 14 14 13 13 13 14 14 14 14 14 13 13 14 14 15 15 16 16 17 17 17 17 17 17 18 19 19 20 20 21 20 20 21 21 21 22 22 22 22 22 22 22
16 16 15 15 15 14 14 15 15 15 15 15 15 14 15 15 15 16 16 17 17 17 17 17 17 18 19 20 20 21 22 22 22 22 23 22 22 22 23 23 23 23 23 23
17 16 17 17 17 16 16 15 15 15 15 15 15 15 16 16 17 17 17 17 17 18 18 18 18 19 20 21 22 22 23 24 24 24 23 23 23 23 23 23 23 24 24 24
18 17 18 18 18 18 18 17 16 16 15 15 15 16 17 17 17 17 18 18 18 19 19 19 20 20 20 21 22 23 23 24 24 24 24 24 24 24 23 24 24 25 26 25
20 19 19 18 19 19 19 19 17 16 16 17 17 17 17 17 17 17 17 18 19 19 19 19 19 20 20 21 22 23 24 24 24 24 24 24 25 25 25 26 27 27 27 27
21 20 20 21 21 21 20 20 19 17 17 17 18 18 19 19 19 19 18 19 20 20 20 20 21 21 21 22 23 24 24 25 25 25 25 26 26 27 27 28 28 28 28 28
23 22 21 22 22 22 22 21 21 20 19 19 18 19 19 20 20 20 20 21 21 21 22 22 23 23 23 24 24 24 25 26 26 26 27 27 28 28 29 29 29 30 30 30
26 25 24 23 24 24 23 23 23 22 21 21 21 20 20 21 21 21 22 22 22 22 22 22 23 23 24 24 24 25 25 25 26 26 27 28 28 29 30 30 31 31 31 32
27 26 25 25 25 26 25 25 25 24 23 23 23 23 23 23 23 22 22 22 23 23 23 23 23 23 24 25 25 25 26 27 27 28 28 29 30 30 30 31 31 32 32 33
28 27 26 26 26 26 26 26 26 25 25 25 24 24 24 24 24 24 24 23 23 23 24 24 24 24 24 25 26 26 27 28 28 28 29 30 31 31 31 31 32 33 34 35
28 28 27 26 26 26 27 27 26 26 25 25 25 25 25 25 25 25 25 25 25 25 25 25 26 26 27 27 28 28 29 29 30 30 31 31 32 33 33 34 34 36 37 37
28 28 27 26 26 25 26 26 26 27 27 27 27 26 27 27 26 26 26 27 27 27 28 28 28 29 29 30 30 30 30 31 31 32 33 34 35 35 36 36 37 38 38 39
28 28 28 28 28 27 27 27 27 27 27 28 28 28 28 28 28 28 28 29 29 29 29 30 30 31 31 31 31 31 32 33 34 34 35 36 37 37 38 39 40 40 40 40
28 29 29 29 29 29 29 28 28 28 28 28 28 28 28 29 29 29 29 29 30 30 31 31 32 32 32 33 33 33 33 34 35 36 36 37 38 38 39 40 40 41 41 42
28 29 29 29 29 29 29 29 29 29 29 29 29 29 29 30 30 30 31 31 32 32 32 32 33 33 34 34 34 35 35 36 36 37 38 39 40 40 41 41 41 42 43 44
29 29 29 29 29 29 29 29 29 29 29 30 31 31 31 31 31 32 32 33 33 33 33 33 34 34 34 34 35 35 36 36 37 38 39 39 40 41 41 42 42 42 43 43
29 29 29 29 29 30 30 30 30 30 31 31 31 32 32 33 33 33 33 34 33 34 34 35 35 35 35 35 36 37 37 37 38 39 40 41 41 41 42 42 42 43 43 44
29 29 30 30 30 31 31 31 32 32 32 32 32 32 33 34 34 34 34 34 35 35 35 36 36 36 36 37 37 37 38 39 39 40 40 40 41 41 42 42 42 42 43 43
29 30 30 31 31 31 31 31 32 32 33 33 33 33 33 34 34 34 34 34 35 35 36 36 37 37 37 37 37 38 39 39 39 39 39 40 41 41 41 42 42 42 42 42
30 30 30 31 31 31 31 31 31 32 32 32 33 33 33 34 35 35 35 35 35 36 36 36 37 38 38 38 38 38 38 38 38 38 39 39 40 40 40 40 40 41 41 41
Wind_Direction
246 248 252 250 252 252 248 244 244 243 238 234 237 233 232 232 231 231 228 226 224 221 223 224 224 226 225 229 231 228 228 230 233 235 238 241 244 246 249 256 259 262 267 269
249 251 255 256 255 254 249 245 245 245 240 241 243 236 233 232 233 233 230 229 226 224 226 227 228 228 227 228 229 229 230 232 234 235 239 243 245 249 252 256 260 262 264 265
250 252 254 252 253 250 248 247 248 250 245 241 239 238 238 237 234 232 229 228 227 227 229 228 229 230 228 229 229 230 232 233 235 239 243 246 246 249 255 259 262 263 263 265
252 250 251 250 248 247 249 251 253 252 246 245 240 240 240 239 236 233 229 227 227 229 229 226 227 228 229 228 230 232 233 235 237 242 246 246 248 251 257 261 263 263 263 263
256 254 247 244 246 247 248 250 254 249 248 250 247 245 242 238 234 232 230 229 228 227 227 228 229 229 229 230 234 237 238 240 241 243 247 250 251 254 258 262 263 263 264 265
256 254 247 245 247 248 249 251 251 250 248 249 250 246 240 235 230 229 228 229 228 228 230 233 233 232 232 233 236 240 243 245 245 246 250 252 254 255 258 263 265 266 266 267
253 252 249 248 251 252 250 249 249 251 248 248 246 244 240 234 227 227 227 227 228 232 235 235 235 235 235 237 239 241 245 249 249 251 252 255 256 257 261 264 266 266 267 268
251 249 247 246 249 250 248 246 248 249 249 249 246 243 240 234 230 228 228 229 232 236 237 237 237 238 238 239 240 244 247 251 252 253 256 259 259 260 263 266 267 266 268 269
249 249 245 246 249 249 245 245 248 252 253 252 246 244 240 236 234 232 230 231 234 235 236 238 239 240 241 241 243 248 251 253 254 255 257 259 261 263 264 266 268 268 270 271
247 247 246 247 249 248 246 248 250 253 254 252 248 244 241 239 237 236 237 238 239 239 240 242 244 244 243 244 246 251 253 255 256 256 257 260 262 264 265 266 269 270 272 273
246 245 247 248 248 247 248 249 251 253 252 250 248 245 242 242 241 240 241 243 244 244 245 248 249 250 248 246 249 252 255 255 256 257 257 258 262 264 265 267 269 270 272 274
248 248 249 249 248 248 248 247 249 249 249 250 248 244 243 244 245 243 243 245 248 249 248 250 252 254 253 252 254 256 257 257 256 258 257 259 263 265 267 268 270 271 273 275
247 248 250 249 248 249 249 247 247 249 250 250 249 248 247 249 249 247 247 249 251 252 252 254 254 254 256 257 258 258 259 259 258 259 260 262 264 266 269 270 271 273 274 276
246 247 247 247 248 248 248 248 250 251 250 248 248 249 250 250 251 250 252 254 255 254 255 257 256 256 257 259 261 261 261 262 262 263 263 265 266 268 270 271 273 274 276 277
245 245 246 248 250 250 249 250 251 251 250 249 249 251 253 254 254 255 255 256 257 258 258 259 260 259 260 262 263 264 264 265 264 264 265 267 268 269 271 272 274 275 276 278
243 245 246 248 249 249 249 250 250 248 248 251 252 252 253 256 257 258 258 258 258 259 260 261 261 261 261 262 263 264 266 266 267 267 268 269 271 272 273 274 275 276 277 279
243 245 246 247 248 249 249 250 249 248 249 251 253 253 254 255 257 258 259 259 259 259 259 261 262 262 262 264 266 266 267 268 268 269 270 272 273 274 275 275 277 278 279 281
244 245 246 247 248 248 249 250 250 250 251 252 253 254 256 257 258 259 260 260 261 261 262 262 262 263 264 265 266 267 267 269 270 271 272 273 274 275 276 277 278 280 280 282
243 243 244 246 248 250 250 251 252 252 253 252 253 256 258 259 260 260 261 262 262 262 263 263 264 265 266 268 269 270 270 271 272 272 274 275 276 277 278 279 280 281 281 282
242 243 245 247 249 252 253 254 255 254 254 254 254 255 257 259 260 260 261 261 262 264 265 265 266 267 268 269 270 272 272 273 273 274 275 276 278 278 279 280 281 281 282 283
244 245 246 248 250 252 254 256 257 256 256 256 256 256 258 259 259 260 260 262 264 265 267 269 269 268 269 270 271 273 274 275 275 275 276 278 279 280 281 282 282 283 283 284
244 245 247 249 250 252 254 256 257 257 257 257 258 258 258 259 259 260 261 262 265 267 268 269 270 271 272 272 273 275 276 277 277 277 278 279 280 281 281 282 284 284 285 285
245 246 248 249 250 252 254 255 256 257 258 259 260 260 259 259 260 262 262 265 266 267 268 270 271 273 273 274 275 276 277 278 278 279 280 280 281 282 282 283 284 284 286 286
246 247 248 249 251 252 254 255 256 257 258 259 260 261 261 261 262 263 264 266 268 269 270 271 272 273 273 274 276 276 277 278 279 280 281 282 282 283 283 283 284 285 286 287
249 249 251 252 253 254 255 255 256 257 259 260 261 262 263 263 263 264 266 267 268 269 270 271 272 274 275 275 275 276 277 278 280 281 281 282 282 283 283 284 285 286 287 287
251 251 252 253 254 256 257 257 258 258 260 261 263 264 264 264 264 264 265 266 267 269 270 272 273 274 275 276 277 278 279 279 280 281 281 282 283 284 285 286 286 287 287 288
252 253 254 255 256 257 258 259 259 260 262 263 264 264 265 266 265 265 266 267 269 270 271 272 273 274 275 276 277 278 279 280 281 281 282 283 284 285 286 287 288 288 289 289
Height
5801 5801 5802 5803 5804 5805 5806 5807 5808 5809 5809 5811 5812 5813 5815 5817 5819 5821 5822 5824 5826 5828 5830 5832 5834 5836 5839 5841 5843 5844 5846 5849 5850 5852 5853 5854 5855 5856 5857 5857 5857 5858 5857 5857
5798 5799 5799 5800 5801 5802 5803 5804 5805 5806 5807 5808 5809 5810 5811 5813 5815 5817 5819 5821 5823 5825 5827 5829 5831 5833 5835 5837 5839 5841 5843 5845 5847 5848 5850 5851 5852 5853 5853 5854 5854 5854 5854 5854
5795 5796 5797 5798 5799 5800 5801 5802 5803 5803 5805 5805 5806 5806 5808 5809 5811 5814 5816 5818 5820 5822 5824 5825 5827 5829 5831 5834 5836 5838 5840 5842 5843 5845 5846 5847 5848 5849 5850 5850 5851 5851 5851 5851
5792 5794 5795 5798 5796 5797 5798 5799 5800 5800 5801 5802 5803 5803 5804 5806 5807 5810 5812 5814 5816 5818 5820 5822 5824 5826 5828 5830 5832 5834 5836 5838 5840 5841 5842 5843 5844 5845 5846 5846 5846 5846 5847 5847
5788 5789 5791 5793 5793 5794 5795 5796 5796 5797 5798 5798 5799 5800 5801 5802 5804 5806 5808 5810 5813 5815 5817 5819 5821 5823 5825 5827 5829 5831 5832 5834 5836 5837 5838 5839 5840 5841 5841 5842 5842 5842 5842 5842
5784 5785 5787 5791 5790 5790 5792 5793 5793 5793 5794 5795 5795 5797 5798 5799 5800 5802 5804 5807 5809 5811 5813 5815 5817 5819 5821 5823 5825 5827 5829 5830 5831 5833 5834 5835 5836 5836 5837 5837 5837 5837 5837 5837
5780 5781 5784 5786 5786 5788 5790 5791 5790 5790 5791 5791 5792 5794 5795 5795 5797 5799 5801 5803 5806 5808 5810 5811 5813 5815 5817 5819 5821 5823 5824 5826 5827 5828 5829 5830 5831 5832 5832 5832 5832 5832 5832 5832
5776 5778 5782 5782 5783 5784 5785 5785 5786 5786 5787 5788 5789 5790 5791 5792 5794 5796 5798 5800 5802 5804 5806 5808 5809 5811 5813 5815 5817 5818 5820 5821 5822 5823 5824 5825 5825 5826 5826 5826 5826 5826 5826 5826
5773 5776 5776 5777 5778 5779 5780 5781 5782 5783 5783 5784 5785 5786 5788 5789 5791 5792 5795 5797 5799 5801 5802 5804 5805 5807 5809 5811 5812 5814 5815 5816 5817 5818 5818 5819 5820 5820 5820 5820 5820 5820 5820 5820
5768 5770 5771 5772 5774 5775 5776 5777 5778 5779 5780 5781 5781 5783 5784 5785 5787 5789 5791 5793 5795 5797 5798 5800 5801 5803 5804 5805 5807 5808 5809 5810 5811 5812 5812 5813 5813 5813 5814 5814 5814 5814 5814 5813
5763 5765 5766 5767 5769 5770 5771 5773 5774 5775 5776 5777 5778 5779 5780 5782 5783 5785 5787 5789 5791 5792 5794 5795 5796 5797 5799 5800 5801 5803 5803 5804 5805 5805 5806 5806 5807 5807 5807 5807 5807 5807 5807 5806
5758 5760 5761 5763 5764 5765 5767 5768 5769 5771 5772 5773 5774 5775 5776 5777 5779 5781 5783 5784 5786 5787 5789 5790 5791 5792 5793 5794 5795 5796 5797 5798 5798 5799 5799 5800 5800 5800 5799 5800 5799 5799 5799 5799
5752 5754 5755 5757 5758 5760 5762 5763 5765 5766 5767 5768 5769 5770 5772 5773 5774 5776 5778 5779 5780 5782 5783 5784 5785 5786 5787 5788 5789 5790 5790 5791 5791 5792 5792 5793 5793 5793 5793 5792 5792 5792 5791 5790
5745 5748 5749 5751 5753 5754 5756 5758 5759 5760 5762 5763 5764 5766 5767 5768 5769 5771 5772 5773 5774 5776 5777 5778 5779 5779 5781 5781 5782 5782 5783 5784 5784 5785 5785 5785 5785 5785 5785 5784 5784 5783 5783 5782
5739 5741 5743 5745 5746 5748 5750 5752 5753 5754 5756 5757 5759 5760 5761 5763 5764 5765 5766 5767 5768 5769 5771 5771 5772 5773 5774 5774 5775 5775 5776 5776 5777 5777 5777 5777 5777 5777 5776 5776 5775 5774 5774 5773
5731 5733 5736 5738 5740 5741 5743 5745 5746 5748 5749 5751 5753 5754 5755 5757 5758 5759 5760 5761 5762 5763 5764 5765 5765 5766 5767 5767 5768 5768 5768 5768 5769 5769 5769 5768 5768 5768 5767 5766 5766 5765 5764 5763
5724 5726 5728 5730 5732 5734 5736 5738 5739 5741 5743 5744 5746 5747 5748 5750 5751 5752 5753 5754 5755 5756 5757 5758 5758 5759 5759 5760 5760 5760 5760 5760 5760 5760 5760 5760 5759 5758 5758 5757 5756 5755 5754 5752
5716 5719 5721 5723 5725 5727 5729 5730 5732 5734 5735 5737 5738 5739 5741 5742 5743 5745 5746 5747 5748 5749 5749 5750 5751 5751 5752 5752 5752 5752 5752 5752 5751 5751 5751 5750 5750 5749 5748 5747 5746 5744 5743 5741
5708 5711 5713 5715 5717 5719 5721 5723 5724 5726 5727 5729 5730 5732 5733 5734 5736 5737 5738 5739 5740 5741 5741 5742 5742 5743 5743 5743 5743 5743 5743 5743 5742 5742 5741 5741 5740 5739 5737 5736 5735 5733 5731 5729
5700 5703 5705 5708 5710 5712 5714 5715 5717 5718 5719 5721 5722 5723 5725 5726 5727 5729 5730 5731 5731 5732 5732 5733 5733 5734 5734 5734 5734 5734 5733 5733 5732 5732 5731 5730 5729 5728 5726 5725 5723 5721 5719 5717
5692 5695 5697 5699 5702 5704 5705 5707 5708 5710 5711 5712 5713 5715 5716 5717 5719 5720 5721 5722 5723 5723 5723 5723 5724 5724 5724 5724 5724 5723 5723 5722 5722 5721 5720 5719 5717 5716 5714 5712 5710 5708 5706 5704
5685 5687 5689 5691 5693 5695 5697 5698 5699 5701 5702 5704 5705 5706 5707 5708 5709 5711 5712 5712 5713 5713 5714 5714 5714 5713 5713 5713 5713 5712 5712 5711 5710 5709 5708 5706 5705 5704 5702 5700 5698 5695 5693 5691
5676 5678 5680 5682 5684 5686 5688 5689 5691 5692 5693 5695 5696 5697 5698 5699 5700 5701 5702 5702 5702 5703 5703 5703 5703 5702 5702 5702 5702 5701 5700 5699 5698 5697 5695 5694 5692 5690 5689 5687 5684 5682 5680 5677
5668 5670 5672 5674 5675 5677 5679 5680 5682 5683 5684 5685 5686 5687 5688 5689 5690 5690 5691 5692 5692 5692 5692 5692 5692 5691 5691 5691 5690 5690 5689 5688 5686 5685 5683 5681 5680 5678 5676 5674 5671 5669 5666 5663
5660 5661 5663 5665 5666 5668 5670 5671 5672 5673 5674 5675 5676 5676 5677 5678 5679 5680 5680 5681 5681 5681 5681 5681 5680 5680 5679 5679 5678 5677 5676 5675 5674 5672 5670 5669 5667 5665 5663 5660 5658 5655 5653 5650
5651 5653 5654 5656 5657 5659 5660 5661 5662 5663 5664 5665 5666 5666 5667 5667 5668 5668 5669 5669 5669 5669 5669 5669 5668 5668 5667 5667 5666 5665 5664 5662 5661 5659 5657 5656 5654 5652 5649 5647 5645 5642 5640 5637
5642 5643 5645 5647 5648 5649 5651 5652 5653 5653 5654 5655 5655 5656 5656 5657 5657 5657 5657 5657 5657 5657 5657 5657 5656 5655 5655 5654 5654 5653 5651 5650 5648 5647 5645 5643 5641 5639 5637 5635 5632 5630 5627 5624